Regional Weather Roundup
Issued by NWS Wakefield, VA

Home | Current Version | Previous Version | Text Only | Print | Product List | Glossary Off
Versions: 1 2 3 4 5 6 7 8 9 10 11 12 13 14 15 16 17 18 19 20 21 22 23 24 25 26 27 28 29 30 31 32 33 34 35 36 37 38 39 40 41 42 43 44 45 46 47 48 49 50

000
ASUS41 KAKQ 021210
RWRAKQ

REGIONAL WEATHER ROUNDUP
NATIONAL WEATHER SERVICE WAKEFIELD VA
800 AM EDT TUE SEP 02 2014

Note: "fair" indicates few or no clouds below 12,000 feet with no
significant weather and/or obstructions to visibility. * = Denotes
station may not report precipitation (e.g., rain,snow,etc.),
thunder or fog.

VAZ042-051-052>054-056-021300-
NORTHERN VIRGINIA

CITY           SKY/WX    TMP DP  RH WIND       PRES   REMARKS
WASH NATIONAL  MOSUNNY   80  69  69 S7        29.98R
DULLES         PTSUNNY   74  69  85 S5        29.98S
FORT BELVOIR   MOSUNNY   73  72  98 CALM      29.99R
QUANTICO       MOSUNNY   76  71  85 CALM      29.99R
FREDERICKSBRG* SUNNY     76  71  82 CALM      29.99R
STAFFORD*      SUNNY     74  74 100 CALM      30.03R
WARRENTON      SUNNY     74  74  98 CALM      29.99
CULPEPER*      MOSUNNY  N/A N/A N/A CALM      29.99S
MANASSAS*      NOT AVBL
LEESBURG*      MOSUNNY   73  73 100 CALM      29.99S
WINCHESTER     MOSUNNY   75  64  69 SW6       30.00S
$$

VAZ048-049-060>072-079>083-021300-
CENTRAL AND SOUTH CENTRAL VIRGINIA...AND NORTH CENTRAL NORTH CAROLINA

CITY           SKY/WX    TMP DP  RH WIND       PRES   REMARKS
RICHMOND       MOSUNNY   76  70  82 S3        30.02R
CHESTERFIELD*  SUNNY    N/A N/A N/A S3        30.03S
PETERSBURG*    SUNNY     73  71  92 SW3       30.03S
HANOVER        SUNNY     77  69  76 S5        30.03R
TAPPAHANNOCK*  SUNNY     76  69  80 S3        30.01S
CHARLOTTSVILLE MOSUNNY   74  69  85 CALM      30.01R
ORANGE*        MOSUNNY   73  70  88 S3        30.02R
LOUISA*        SUNNY     75  70  83 CALM      30.01R
FARMVILLE*     SUNNY     72  72 100 S3        30.01S
SOUTH HILL*      N/A     75  75 100 S5        30.10S
ROANOKE RAPIDS SUNNY     73  72  94 SW8       30.06R
RALEIGH        MOSUNNY   74  70  87 SW6       30.08R
$$

VAZ088>098-021300-
SOUTHEAST VIRGINIA

CITY           SKY/WX    TMP DP  RH WIND       PRES   REMARKS
NORFOLK        SUNNY     80  74  81 SW10      30.03R
VIRGINIA BEACH MOSUNNY   79  75  87 SW12      30.02R
NORFOLK NAVAL  MOSUNNY   81  75  82 SW7       30.04R
WEST POINT*    NOT AVBL
NEWPORT NEWS   SUNNY     82  74  76 SW8       30.03R
LANGLEY AFB    MOSUNNY   80  78  96 SW12      30.02R
FORT EUSTIS    SUNNY     79  79 100 SW6       30.01R
WILLIAMSBURG*  SUNNY     79  73  83 CALM      30.03S
FRANKLIN*      SUNNY     77  75  94 S5        30.04S
WAKEFIELD      SUNNY     77  73  87 SW6       30.03S
$$

VAZ020-022-025-037-045-021300-
WESTERN AND SOUTHWEST VIRGINIA

CITY           SKY/WX    TMP DP  RH WIND       PRES   REMARKS
STAUNTON*      MOSUNNY   73  66  78 CALM      30.06S
HOT SPRINGS VA PTSUNNY   65  63  91 W16       30.21R
LYNCHBURG      MOSUNNY   70  69  97 S6        30.07S
DANVILLE       SUNNY     71  67  87 SW5       30.07R
MARTINSVILLE   SUNNY     68  68 100 CALM      30.11R
ROANOKE        PTSUNNY   74  66  76 W8        30.10R
BLACKSBURG     MOSUNNY   66  66 100 CALM      30.17R
DUBLIN*        MOSUNNY   70  68  94 SW6       30.17R
MARION*        MOSUNNY  N/A N/A N/A CALM      30.21S
HILLSVILLE*    SUNNY     65  63  92 SW3       30.19R
RICHLANDS*     MOSUNNY   73  68  84 CALM      30.18S
WISE*          PTSUNNY   72  70  94 SW6       30.19S
ABINGDON*      SUNNY     69  69  98 CALM      30.17R
$$

MDZ021>025-VAZ099-100-021300-
SOUTHERN MARYLAND AND THE DELMARVA PENINSULA

CITY           SKY/WX    TMP DP  RH WIND       PRES   REMARKS
PATUXENT RIVER MOSUNNY   77  70  79 SW7       29.98S
BAY BRIDGE APT   N/A     79  70  73 S3        29.97S
LEONARDTOWN    SUNNY     75  70  83 SW3       30.01R
DOVER          SUNNY     77  77 100 SW6       29.96R
GEORGETOWN     SUNNY     78  72  81 S7        29.99R
EASTON         SUNNY     79  79 100 CALM      30.01R
CAMBRIDGE      SUNNY     77  72  83 CALM      29.98R
SALISBURY      SUNNY     79  73  82 CALM      29.99S
OCEAN CITY     MOSUNNY   79  73  82 W3        29.99R
WALLOPS ISLAND MOSUNNY   81  74  79 W9        30.00R
ACCOMACK*      NOT AVBL
$$

NCZ012>017-030>032-021300-
EASTERN NORTH CAROLINA

CITY           SKY/WX    TMP DP  RH WIND       PRES   REMARKS
ELIZABETH CITY SUNNY     79  75  87 SW9       30.05R
AHOSKIE*       SUNNY     75  73  93 CALM      30.06R
EDENTON*       SUNNY     78  76  91 SW8       30.06R
CURRITUCK*     SUNNY     78  74  85 SW7       30.05S
KILL DEVIL HLS SUNNY     80  75  85 W6        30.05R
MANTEO         SUNNY     79  74  86 W6        30.07R
CAPE HATTERAS  MOSUNNY   80  77  90 W8        30.08R
GOLDSBORO      SUNNY     77  77  99 SW5       30.06S
WASHINGTON     SUNNY     76  74  93 SW6       30.08R
GREENVILLE     LGT RAIN  77  75  94 SW8       30.08S
NEW BERN       CLOUDY    79  75  87 SW6       30.10R
WILMINGTON     SUNNY     79  77  94 W8        30.10R
$$

VAZ048-021300-
ELSEWHERE

CITY           SKY/WX    TMP DP  RH WIND       PRES   REMARKS
HARRISBURG PA  MOSUNNY   76  71  85 CALM      29.95R
BALTIMORE      MOSUNNY   76  73  91 SW3       29.97R
ANNAPOLIS      SUNNY     79  69  71 CALM      29.97R
ANDREWS AFB    SUNNY     78  71  79 SW6       29.99R
WILMINGTON DE  SUNNY     76  74  93 W7        29.97R
PHILADELPHIA   MOSUNNY   77  72  84 SW9       29.96R
WILDWOOD NJ*   SUNNY     79  72  78 SW8       29.98R
ATLANTIC CITY  SUNNY     78  73  84 SW7       29.96R
HENDERSON NC   SUNNY     73  69  87 SW6       30.07S
GREENSBORO     MOSUNNY   73  69  87 SW8       30.08S
ROCKY MOUNT    SUNNY     77  74  90 S6        30.07R
FAYETTEVILLE   SUNNY     77  74  90 SW5       30.09R
CHARLOTTE      MOSUNNY   75  69  81 CALM      30.10S
$$

VAZ100-021300-
MARINE

STATION/POSITION TIME  TEMP    WIND        PRES    WAVE   SWELL
                       AIR SEA DIR/SP/G            HT/PER HT/PER
                 (UTC) (F)     (DEG/KT/KT) (MB)    (FT/S) (FT/S)
44066 TX TWR #4  1200   75 74  230/  8/  8 1014.5R   3/ 5   3/ 5
CAPE MAY NJ      1200   77 80  250/ 10/ 12 1014.3R
LEWES DE         1200   79 77  240/  8/ 11 1014.6S
15NM E FENWICK I 1200   78 75              1015.0R   3/ 5
OCEAN-CITY-INLET 1200   78 77  270/  6/  7 1014.9S
WACHAPREAGUE VA  1200   78 81  250/  4/  8 1016.1S
THOMAS POINT MD  1200   78 79  230/  9/  9 1015.9R
GOOSES REEF MD   1200   79     260/  8/ 10 1015.5S
COVE POINT MD    1200   79     260/ 11/ 12 1015.0R
SOLOMONS ISLAND  1200      80                N/A
BISHOPS HEAD MD  1200   80 80  230/  8/ 10 1015.1F
PINEY POINT MD   1200          250/  2/  3   N/A
POTOMAC MD       1200   78     260/  8/ 10 1015.0S
CAMBRIDGE MD     1200   77 80  200/  2/  3 1014.9S
LEWISETTA VA     1200   77 81  240/  6/  7 1015.3R
RAPPAHANNOCK LGT 1200          230/ 10/ 12 1016.6R
STINGRAY PT      1200   79     260/  8/ 10   N/A
YORK RVR RNG VA  1200   79     270/ 12/ 13 1015.7F
YORKTOWN VA      1200   79 80  280/  3/  4 1016.2R
JAMESTOWN VA     1200   75     290/  2/  4   N/A
DOMINION TERM VA 1200   79     250/  7/ 10 1016.9R
KIPTOPEKE VA     1200      83  250/ 10/ 12   N/A
CHES BAY BRIDGE  1200   79 80  220/ 11/ 12 1016.1R
CAPE HENRY VA    1200   79     230/  8/ 11 1015.5R
CHESAPEAKE LGHT  1100   79     250/ 15/ 16 1016.9R
WILLOUBY STN VA  1200   79     240/ 12/ 13 1015.4R
S CRANEY ISL VA  1200          220/  6/  9 1016.5R
CAPE HENRY BUOY  1200      79                N/A     2/ 8
1ST LANDING BUOY 1200   80     240/ 10/ 12 1016.4R
CAPE CHARLES BUO 1200      78                N/A     2/12   2/12
OFFSHORE WE BUOY 1200      78                N/A     3/ 9   2/ 9
64NM E OF VA BCH 1200   78 76  230/ 12/ 14 1016.7R   3/ 9   2/ 9
DUCK PIER NC     1200   80 75  240/ 11/ 14 1016.9R
44056 DUCK FRF   1200                        N/A     2/12   2/12
OREGON INLET NC  1200   79 84  240/ 12/ 15 1018.0R
HATTERAS NC      1200   81 83  240/  9/ 15 1019.0R
DIAMOND SHLS NC  1200   81     250/ 12/ 14 1018.6R   3/ 4   2/ 9
CAPE LOOKOUT NC  1100   81     260/ 10/ 13 1018.5R
$$


USA.gov is the U.S. government's official web portal to all federal, state and local government web resources and services.